Погода в Эвороне

Россия / Хабаровский край     51°23′38″N   136°20′21″E
темп.,
°C
ветер,
м/с
пор.,
м/с
влажн.,
%
обл.,
%
осадки,
мм/ч
давл.,
гПа
погр.,
м
24 января, вс
вс2401:00−20ю2290100 0.0 101931
04:00−20зсз1189100 0.0 101820
07:00−24ссз229587 0.0 101933
10:00−23сз229236 0.0 102154
13:00−19с238751 0.0 1023304
16:00−19ссв129068 0.0 1024170
19:00−23зсз22959 0.0 102920
22:00−22зсз229752 0.1 103128
25 января, пн
пн2501:00−25зсз228870 0.0 103420
04:00−26з118335 0.0 103519
07:00−27зюз11910 0.0 103719
10:00−26з11850 0.0 103730
13:00−21ссв01730 0.0 1036273
16:00−21всв11843 0.0 1035117
19:00−26всв019168 0.0 103720
22:00−28сз119145 0.0 103619
26 января, вт
вт2601:00−28ссз119369 0.0 103519
04:00−28с119484 0.0 103319
07:00−28ссз1193100 0.0 103119
10:00−25сз1291100 0.0 1028133
13:00−22с2387100 0.1 1024313
16:00−21с2397100 0.8 1021320
19:00−22ссз2599100 1.1 1021307
22:00−23сз2298100 1.4 102067
27 января, ср
ср2701:00−24ссз2798100 0.1 1020297
04:00−25ссз3897100 0.3 1019324
07:00−25ссз3996100 0.1 1019411
10:00−25ссз51093100 0.1 1018468
13:00−24ссз5990100 0.0 1017583
16:00−23ссз5990100 0.1 1016690
19:00−24ссз41196100 0.1 1017673
22:00−24сз31197100 0.4 1017672
28 января, чт
чт2801:00−24сз31097100 0.2 1018582
04:00−24з2397100 0.3 101974
07:00−24зюз2294100 0.1 101936
10:00−23зюз2292100 0.1 1020105
13:00−20зюз1280100 0.0 1019449
16:00−20вюв117799 0.0 1018390
19:00−25юв128912 0.0 101920
22:00−27ююз119316 0.0 102019